Location: Bathsheba
(13.2167°N, 59.5167°W)
Time: 23:58:07
(UTC+00:00)

H-2A R/B - Pass Details

Date: 18 September 2020
Orbit: 734 x 836 km, 98.2° (Epoch: 20 October)

Event Time Altitude Azimuth Distance (km) Brightness Sun altitude
Exits shadow 22:30:04 - 116° (ESE) 2,340 3.9 -9.0°
Reaches altitude 10° 22:30:30 10° 113° (ESE) 2,231 3.8 -9.1°
Maximum altitude 22:33:32 17° 74° (ENE) 1,821 3.4 -9.8°
Drops below altitude 10° 22:36:35 10° 35° (NE) 2,244 4.1 -10.5°
Sets 22:39:39 0° 15° (NNE) 3,179 5.1 -11.3°
